DELTA 1 DEB, 10823

Orbit data source: Space-Track

DELTA 1 DEB, 10823 is space debris in SSO originally from a launch on Thu, 29 Jul 1976 UTC launched from the Air Force Western Test Range (AFWTR). Debris objects in space refer to the collection of defunct objects orbiting the Earth. Examples of debris include non-operational satellites, rocket bodies, and fragments generated from explosions, collisions, or faulty payload assembly.

Loading next visibility...
Identifier
10823, 1976-077BT
Orbit
SSO
Country
Flag of USUS
Related business
Manufacturer
Unknown
Mission
Spacecraft
Bus & Motor
Unknown
Mass
Unknown
Launch date (UTC)
1976-07-29 (49 years ago)
Launch vehicle
Unknown
Launch site
Air Force Western Test Range (AFWTR)
Object type
Payload
Rocket body
Debris
Shape & HBR
Unknown shape, 0.1 m
Radar Cross Section
Medium (>0.1 m² and <1 m²)

Expand to show TLE details & history
Last TLE update: 12 hours ago

TLE from 12 hours ago
0 DELTA 1 DEB
1 10823U 76077BT  25291.14656822 -.00000039  00000-0  40905-4 0  9999
2 10823 101.9595 242.7035 0045172 119.7473 359.1230 12.43775369233198
Epoch: 2025-10-18T03:31Z
TLE epoch observation values (Epoch: 2025-10-18T03:31:03.494Z)
Latitude
59.04863°
Longitude
3.63422°
Altitude
1,464.892 km
Speed
7.152 km/s
True Right ascension
05h 33m 07s
True Declination
58° 54' 38"
Sunlit
Object was in daylight at epoch
Visualization orbit readout
Latitude
Unknown
Longitude
Unknown
Altitude
Unknown
Speed
Unknown
Apparent Right ascension
Unknown
Apparent Declination
Unknown
Sunlit
N/A
Visualization observer readout
Local Sidereal Time
10:38:33
Azimuth
Unknown
Elevation
Unknown
Doppler factor
Unknown
Orbital elements
Apogee altitude
1,523.741 km
Perigee altitude
1,452.673 km
Semi-major axis
7,866.344 km
Eccentricity
0.00452
Inclination
101.9595°
RAAN
242.7035°
Arg. of periapsis
119.7473°
True anomaly
359.11503°
Mean anomaly
359.123°
Eccentric anomaly
359.11902°
Mean motion
3.11088 °/min
Orbital period
115.72 mins
BSTAR
0.000040905
Loading maneuver chart data...
Computing Atmospheric mass density...
Loading historical data...
Loading historical data...
Loading historical data...
Loading historical data...
Loading historical data...
Loading historical data...
Loading historical data...

Documentation

Showing up to 5 results
|